Regional Weather Roundup
Issued by NWS

Home | Current Version | Previous Version | Text Only | Print | Product List | Glossary Off
Versions: 1 2 3 4 5 6 7 8 9 10 11 12 13 14 15 16 17 18 19 20 21 22 23 24 25 26 27 28 29 30 31 32 33 34 35 36 37 38 39 40 41 42 43 44 45 46 47 48 49 50

000
ASUS45 KSLC 060010
RWRUT

UTAH REGIONAL WEATHER ROUNDUP
NATIONAL WEATHER SERVICE SALT LAKE CITY UT
600 PM MDT SUN JUL 05 2015

UTZ001>011-023>025-060100-

NORTHERN UTAH

CITY           SKY/WX    TMP DP  RH WIND       PRES   REMARKS
BRIGHAM CITY   MOSUNNY   83  52  33 CALM      29.98F
HILL AFB       SUNNY     85  57  38 NW9       30.01F
LOGAN          SUNNY     82  56  40 VRB5      30.00F
OGDEN          SUNNY     85  57  38 NW8       29.98F
PROVO AIRPORT  MOSUNNY   88  54  31 CALM      29.97F
SALT LAKE CITY MOSUNNY   88  57  34 N10       29.95F
VERNAL         MOSUNNY   79  54  41 E9        30.05S
WENDOVER       SUNNY     91  43  18 W18G26    29.96F
HEBER CITY     MOSUNNY   81  48  32 CALM      30.05F
WEST JORDAN    SUNNY     86  54  32 N13       29.98F

$$

UTZ012>022-026-027-060100-

SOUTHERN/CENTRAL UTAH

CITY           SKY/WX    TMP DP  RH WIND       PRES   REMARKS
BLANDING       MOSUNNY   75  60  58 SE8       30.16F
BRYCE CANYON   PTSUNNY   73  44  35 NW13      30.26R
CEDAR CITY     PTSUNNY   83  41  22 W15G21    30.08F
DELTA          MOSUNNY   93  31  10 W9        29.95F
MILFORD        PTSUNNY   90  41  18 S13       29.99F
MOAB/CYNLANDS  SUNNY     86  56  35 VRB3      29.94F
PRICE          MOSUNNY   85  48  27 S3        30.04F
ST GEORGE      PTCLDY    93  46  20 S22       29.89S

$$

REGIONAL REPORTS     COLORADO/ARIZONA

CITY           SKY/WX    TMP DP  RH WIND       PRES   REMARKS
CRAIG, CO      HVY RAIN  65  59  81 NW13      30.16R
GRAND JUNCTION HVY RAIN  66  61  84 NW9G30    30.06R
RIFLE          LGT RAIN  71  59  65 N6        30.09R
MONTROSE       CLOUDY    71  57  61 SE17      30.14F
CORTEZ         SUNNY     80  51  36 N7G16     30.11F
PAGE, AZ       CLOUDY    92  45  19 W8G18     29.96R
GRAND CANYON   LGT RAIN  63  59  87 S5        30.26F
KINGMAN        MOSUNNY   96  47  18 W13G22    29.97S HX  92
FLAGSTAFF      PTSUNNY   69  57  65 CALM      30.28S

$$

REGIONAL REPORTS    NEVADA/IDAHO/WYOMING

CITY           SKY/WX    TMP DP  RH WIND       PRES   REMARKS
LAS VEGAS, NV  CLOUDY    91  49  23 S17       29.82F
ELY            MOSUNNY   88  31  13 W17G29    30.10F
ELKO           SUNNY     86  44  23 W20G29    30.06F
POCATELLO, ID  PTSUNNY   82  52  35 SW15      30.00F
BURLEY         CLOUDY    73  58  59 SW15      30.00S
EVANSTON, WY   MOSUNNY   70  57  63 N12       30.19S
ROCK SPRINGS   PTSUNNY   63  56  78 VRB3      30.18F
KEMMERER       PTSUNNY   70  52  52 W12       30.21S

$$


USA.gov is the U.S. government's official web portal to all federal, state and local government web resources and services.